Location: Ebenezer
(18.2167°N, 63.0667°W)
Time: 15:15:40
(UTC+00:00)

FengYun 1-2 T - Pass Details

Date: 26 January 2020
Orbit: 846 x 881 km, 98.7° (Epoch: 16 February)

Event Time Altitude Azimuth Distance (km) Brightness Sun altitude
Rises 22:34:40 0° 165° (SSE) 3,439 7.4 -8.0°
Reaches altitude 10° 22:37:02 10° 164° (SSE) 2,508 6.7 -8.5°
Maximum altitude 22:42:37 83° 77° (ENE) 883 4.2 -9.8°
Drops below altitude 10° 22:48:16 10° 350° (N) 2,530 6.6 -11.1°
Sets 22:50:40 0° 349° (N) 3,472 7.3 -11.6°
